www.pogodaiklimat.ru

Погода и климат >> Архив погоды >> Россия >> Мурманская область >> Мурманск


АРХИВ ПОГОДЫ в Мурманске

Время (UTC), дата Ветер
(напр.,м/с)
 
Видим.   Явления Облачность Т
(С)
Тd
(С)
f
(%)
Тe
(С)
Тes
(С)
Комфортность P
(гПа)
Po
(гПа)
Тmin
(С)
Tmax
(С)
R
(мм)
R24
(мм)
S
(см)
00 12.11 Ю 8-11
{13}
10 км 10/10 300 м
[St]
+2.3 -0.4 82 -4 -4 тепло 1019.5 1013.2
03 12.11 Ю 6-10
{11}
10 км 10/10 300 м
[St]
+2.2 0.0 85 -4 -4 тепло 1017.9 1011.6 +1.5
06 12.11 Ю 7-10
{14}
10 км 10/10 300 м
[St]
+3.0 +0.3 82 -3 -3 тепло 1016.1 1009.8 +2.0 0
09 12.11 Ю 7-12
{14}
50 км 10/10 300 м
[St]
+3.4 +0.8 83 -3 -3 тепло 1015.7 1009.4
12 12.11 Ю 7-11
{12}
20 км в посл. час ливневой дождь 10/10 300 м
[Cb cap]
+3.4 +0.8 83 -3 -3 тепло 1014.6 1008.3
15 12.11 Ю 6-10
{13}
10 км 10/10 300 м
[Cb cap]
+3.8 +0.9 81 -2 -2 тепло 1013.7 1007.4 0.0
18 12.11 Ю 8-12
{12}
10 км 10/8 300 м
[St Ac As]
+3.8 +0.7 80 -2 -2 тепло 1012.0 1005.7 +3.8 0.0
21 12.11 Ю 6-9
{13}
10 км 9/9 600 м
[Sc]
+3.3 +0.7 83 -2 -2 тепло 1010.0 1003.8
00 13.11 Ю 6-10
{13}
10 км 9/6 600 м
[Sc Ac As]
+3.6 +0.6 81 -2 -2 тепло 1007.9 1001.7
03 13.11 Ю 7-11
{12}
10 км слабый ливневой дождь 9/8 300 м
[Cb cap Ac trans]
+3.3 +1.2 86 -3 -3 тепло 1005.6 999.4 +3.0 0.0
06 13.11 Ю 6-10
{12}
10 км слабый ливневой дождь 10/9 300 м
[Cb cap Ac und]
+2.4 +1.3 92 -4 -4 тепло 1003.9 997.7 +2.4 0.1 0
09 13.11 Ю 7-10
{11}
20 км слабый ливневой дождь 10/10 300 м
[Cb cap]
+2.5 +0.6 87 -4 -4 тепло 1003.0 996.8
12 13.11 Ю 5-6
{10}
10 км {ливн. осадки} 10/10 200 м
[Cb cap]
+2.6 +1.8 94 -3 -3 тепло 1002.7 996.5
15 13.11 Ю 3 10 км слабый ливневой дождь 10/10 300 м
[Cb cap]
+2.5 +1.2 91 -2 -2 тепло 1002.8 996.6 1
18 13.11 СЗ 3 10 км {ливн. осадки} 10/10 300 м
[Cb cap]
+2.4 +1.4 93 -2 -2 тепло 1004.2 998.0 +2.8 2
21 13.11 СЗ 6-9
{10}
10 км слабый ливневой дождь 9/9 100 м
[Cb cap]
+2.3 +1.5 94 -4 -4 тепло 1006.8 1000.6
00 14.11 СЗ 2 10 км {ливн. осадки} 8/8 600 м
[Cb cap]
+1.3 +0.2 92 -2 -2 тепло 1009.5 1003.1
03 14.11 С 1 10 км 5/5 1000 м
[Sc]
+1.3 -0.9 85 -1 -1 тепло 1011.7 1005.3 +1.2 0.6
06 14.11 Ю 2 10 км 8/3 1000 м
[Sc Ac trans]
-0.1 -0.4 98 -4 -4 тепло 1013.4 1007.0 -0.3 0.0 0
09 14.11 Ю 4 2000 м дымка 9/9 50 м
[St Ac trans]
-1.3 -1.8 96 -7 -7 по сезону 1015.4 1009.0
12 14.11 Ю 3 500 м туман ?/? -1.1 -1.0 100 -6 -6 по сезону 1016.9 1010.5
15 14.11 Ю 6 10 км {туман} 10/8 200 м
[Sc Ac As]
-0.8 -1.6 94 -8 -8 по сезону 1017.5 1011.1
18 14.11 Ю 4 10 км {туман} 10/10 200 м
[St]
-0.2 -1.4 92 -6 -6 по сезону 1017.9 1011.5 -0.1
21 14.11 Ю 6-8
{10}
10 км 9/8 300 м
[St Ac trans]
+0.1 -1.3 90 -7 -7 по сезону 1018.3 1011.9
00 15.11 Ю 6-9
{10}
10 км 9/9 600 м
[Sc]
+0.8 -1.2 86 -6 -6 по сезону 1017.9 1011.5
03 15.11 Ю 8-12
{12}
10 км 9/8 600 м
[Sc Ac trans]
+0.7 -1.0 88 -7 -7 по сезону 1016.8 1010.4 -0.5
06 15.11 Ю 8-11
{15}
10 км 9/8 600 м
[Sc Ac As]
+0.7 -1.3 86 -7 -7 по сезону 1015.4 1009.0 -0.5 0
09 15.11 Ю 7-10
{12}
4000 м слабый ливневой снег 10/8 300 м
[Cb cap Ac und]
+0.5 +0.2 98 -7 -7 по сезону 1013.1 1006.7
12 15.11 Ю 7-11
{12}
4000 м слабый ливневой дождь со снегом 10/10 300 м
[Cb cap]
+1.8 +0.7 92 -5 -5 по сезону 1011.6 1005.2
15 15.11 Ю 8-10
{11}
10 км слабый ливневой дождь 10/10 300 м
[Cb cap]
+2.7 +1.7 93 -4 -4 тепло 1011.0 1004.8 2
18 15.11 Ю 5-8
{12}
10 км слабый ливневой дождь 10/10 200 м
[Cb cap]
+2.8 +1.5 91 -3 -3 тепло 1010.9 1004.7 +2.9 2
21 15.11 Ю 5-8
{10}
10 км {ливн. осадки} 10/10 200 м
[Cb cap]
+3.4 +2.1 91 -2 -2 тепло 1011.6 1005.3
00 16.11 ЮЗ 7-11
{12}
10 км {ливн. осадки} 10/10 200 м
[Cb cap]
+4.0 +2.2 88 -2 -2 тепло 1012.0 1005.7
03 16.11 ЮЗ 6-11
{12}
10 км 4/4 600 м
[Sc]
+4.1 +2.1 87 -1 -1 тепло 1013.1 1006.8 +2.6 0.0
06 16.11 ЮЗ 4 10 км 4/0
[Ac lent Ci fib]
+4.2 +1.7 84 -0 -0 тепло 1015.6 1009.3 +3.0 0.0 0
09 16.11 Ю 5 50 км 9/3 600 м
[Sc Cs]
+4.2 +1.9 85 -1 -1 тепло 1017.2 1010.9
12 16.11 Ю 5-8
{12}
50 км 9/3 600 м
[Sc Ac trans]
+4.2 +1.7 84 -1 -1 тепло 1017.0 1010.7
15 16.11 Ю 4 10 км 9/3 600 м
[Sc Ac trans]
+3.8 +1.5 85 -1 -1 тепло 1014.3 1008.0
18 16.11 Ю 6-10
{10}
10 км слабый ливневой дождь 10/8 300 м
[Cb cap Ac As]
+4.0 +3.0 93 -2 -2 тепло 1010.8 1004.6 +4.5 2
21 16.11 ЮЗ 6-10
{11}
10 км в посл. час ливневой дождь 10/10 300 м
[Cb cap]
+6.4 +4.6 88 +2 +2 тепло 1008.9 1002.7
00 17.11 ЮЗ 6-10
{14}
10 км {ливн. осадки} 1/1 600 м
[Sc]
+5.0 +2.4 83 -0 -0 тепло 1008.4 1002.2
03 17.11 ЮЗ 2-5
{11}
10 км 4/1 600 м
[Sc Ac trans Ci fib]
+4.6 +1.3 79 +2 +2 тепло 1009.2 1003.0 +3.5 2
06 17.11 Ю 4 10 км 9/6 1000 м
[Sc Ac trans]
+4.0 +0.9 80 -0 -0 тепло 1009.6 1003.4 +3.0 0.5 0
09 17.11 Ю 4 20 км в посл. час дождь 10/8 600 м
[Sc As op]
+3.3 +1.5 88 -1 -1 тепло 1010.2 1004.0
12 17.11 СЗ 7-10
{10}
20 км в посл. час ливневой дождь 10/8 300 м
[Cb cap Ac As]
+4.6 +3.4 92 -1 -1 тепло 1012.4 1006.1
15 17.11 С 13-20
{21}
10 км слабый ливневой дождь 9/9 300 м
[Cb cap]
+3.3 +2.5 94 -5 -5 по сезону 1021.6 1015.2 3
18 17.11 С 10-17
{20}
10 км слабый ливневой дождь 9/9 300 м
[Cb cap]
+2.5 +1.2 91 -5 -5 по сезону 1029.4 1023.0 +4.8 4
21 17.11 С 10-16
{19}
10 км {ливн. осадки} 9/9 600 м
[Cb cap]
+2.4 -2.9 68 -5 -5 по сезону 1035.1 1028.7
00 18.11 С 8-13
{18}
10 км {ливн. осадки} 9/9 1000 м
[Sc]
+1.6 -3.9 67 -5 -5 тепло 1040.2 1033.6
03 18.11 С 5-8
{13}
10 км 9/9 1000 м
[Sc]
+1.4 -4.8 63 -4 -4 тепло 1041.9 1035.3 +1.3 1
06 18.11 С 6-8
{10}
10 км 10/10 1000 м
[Sc]
+1.3 -4.6 65 -5 -5 тепло 1043.2 1036.6 +1.0 0
09 18.11 СЗ 1 20 км 10/10 1000 м
[Sc]
+0.7 -4.6 68 -1 -1 тепло 1043.4 1036.8
12 18.11 ЮЗ 3 20 км 10/10 1000 м
[Sc]
+0.1 -4.5 71 -4 -4 тепло 1042.4 1035.8
15 18.11 Ю 3 10 км 9/9 1000 м
[Sc]
-0.9 -5.1 73 -6 -6 по сезону 1040.4 1033.8
18 18.11 Ю 5 10 км 9/0
[Ac As]
-0.6 -4.7 74 -7 -7 по сезону 1037.7 1031.1 +1.3
21 18.11 Ю 4-7
{11}
10 км 9/9 1000 м
[Sc]
0.0 -4.6 71 -5 -5 тепло 1036.0 1029.4

 

Местоположение метеостанции Мурманск (Мурманская область, Россия): широта 68.97 долгота 33.05 высота над уровнем моря 51 м.

В архиве по умолчанию представлена погода в Мурманске за последнюю неделю. Архивные данные за месяц целиком и за предыдущие месяцы, начиная с января 2011 года, Вы можете получить, выбрав интересующий диапазон дат из раскрывающегося списка и нажав кнопку "Ввод!".


*Определитесь, кто Вы:
робот инопланетянин человек

Внимание! Время в таблицах - всемирное. Для получения местного времени необходимо прибавить поправку, которая в Мурманске равна 3 ч.

Смотрите также архив погоды в соседних городах и на ближайших метеорологических станциях:

Погода в Североморске (Мурманская область, Россия) (20 км)
Погода в Полярном (Мурманская область, Россия) (31 км)
Погода в Ура-Губе (Мурманская область, Россия) (36 км)
Погода в Мурманск аэропорту (Мурманская область, Россия) (42 км)
Погода в Падуне (Мурманская область, Россия) (63 км)
Погода в Пулозере (Мурманская область, Россия) (70 км)
Погода в Перевале (Мурманская область, Россия) (70 км)
Погода в Цып-Наволоке (Мурманская область, Россия) (85 км)
Погода в Териберке (Мурманская область, Россия) (86 км)
Погода в Порту Лиинахамари (Мурманская область, Россия) (99 км)

Пояснения к столбцам:

Ветер - указаны скорость ветра в м/с - средняя за 10 мин, порывы в срок и между сроками (в фигурных скобках) и направление, откуда дует ветер: С - северный, СВ - северо-восточный, В - восточный, ЮВ - юго-восточный, Ю - южный, ЮЗ - юго-западный, З - западный, СЗ - северо-западный.
Видимость - горизонтальная дальность видимости в метрах или километрах. При видимости от 1 до 10 км при отсутствии осадков обычно наблюдается дымка, при ухудшении видимости до 1 км и менее - туман. В сухую погоду видимость может ухудшаться дымом, пылью или мглою.
Явления - указаны атмосферные явления, наблюдавшиеся в срок или в последний час перед сроком; фигурными скобками обозначены явления, наблюдавшиеся между сроками (за 1-3 часа до срока); квадратными скобками обозначены град или гололедные отложения с указанием их диаметра в мм.
Облачность - указаны через наклонную черту общая и нижняя облачность в баллах и высота нижней границы облаков в метрах; квадратными скобками обозначены формы облаков: Ci - перистые, Cs - перисто-слоистые, Cc - перисто-кучевые, Ac - высококучевые, As - высокослоистые, Sc - слоисто-кучевые, Ns - слоисто-дождевые, Cu - кучевые, Cb - кучево-дождевые. Подробнее классификацию облаков см. в Атласе облаков (PDF).
T - Температура воздуха - температура, измеренная на высоте 2 м над землей.
Td - Температура точки росы - температура, при понижении до которой содержащийся в воздухе водяной пар достигнет насыщения.
f - Относительная влажность воздуха - влажноcть воздуха, измеренная на высоте 2 м над землей.
Te - Эффективная температура - температура, которую ощущает одетый по сезону человек в тени. Характеристика душности погоды. При расчете учитывается влияние влажности воздуха и скорости ветра на теплоощущения человека.
Tes - Эффективная температура на солнце - температура, которую ощущает человек, с поправкой на солнечный нагрев. Характеристика знойности погоды. Зависит от высоты солнца над горизонтом, облачности и скорости ветра. Ночью, в пасмурную погоду, а также при ветре 12 м/с и более поправка равна нулю.
P - Атмосферное давление - приведенное к уровню моря атмосферное давление.
Po - Атмосферное давление - измеренное на уровне метеостанции атмосферное давление.
Tmin - Минимальная температура - минимум температуры воздуха на высоте 2 м над землей.
Tmax - Максимальная температура - максимум температуры воздуха на высоте 2 м над землей.
R - Количество осадков - Количество выпавших осадков за период времени, мм. При наведении курсора мыши на число - период времени, за который выпало указанное количество осадков.
R24 - Количество осадков - Количество выпавших осадков за 24 часа, мм.
S - Снежный покров - Высота снежного покрова, см. При наведении курсора мыши на число - состояние снежного покрова и степень покрытия местности в баллах.